"read_dt","SO2 (ppb)","flags","PMT voltage (V)","lamp voltage (V)","lamp intensity (Hz)","internal temp (C)","react chamber temp (C)","sample flow (l/min)","pres (mmHg)","SO2 bkg (ppb)","SO2 coefficient"
2017-04-13 00:00:00,1563E-3,5C000400,-0724,0837,11992,030.4,045.5,0.216,748.6,01.17,0.508
2017-04-13 00:01:00,1701E-3,5C000400,-0724,0837,12079,030.4,045.5,0.216,748.6,01.17,0.508
2017-04-13 00:02:00,1670E-3,5C000400,-0724,0836,12089,030.4,045.5,0.216,748.6,01.17,0.508
2017-04-13 00:03:00,1609E-3,5C000400,-0724,0837,11933,030.4,045.5,0.216,748.6,01.17,0.508
2017-04-13 00:04:00,1712E-3,5C000400,-0724,0836,12112,030.4,045.5,0.216,748.6,01.17,0.508
2017-04-13 00:05:00,1652E-3,5C000400,-0724,0837,12079,030.4,045.5,0.216,748.6,01.17,0.508
2017-04-13 00:06:00,1638E-3,5C000400,-0724,0837,12115,030.4,045.5,0.216,748.6,01.17,0.508
2017-04-13 00:07:00,1725E-3,5C000400,-0724,0836,12018,030.4,045.5,0.216,748.7,01.17,0.508
2017-04-13 00:08:00,1618E-3,5C000400,-0724,0837,12039,030.4,045.5,0.216,748.7,01.17,0.508
2017-04-13 00:09:00,1693E-3,5C000400,-0724,0836,12093,030.4,045.5,0.216,748.7,01.17,0.508
2017-04-13 00:10:00,1568E-3,5C000400,-0724,0837,12125,030.4,045.5,0.216,748.7,01.17,0.508
2017-04-13 00:11:00,1696E-3,5C000400,-0724,0837,12118,030.4,045.5,0.216,748.7,01.17,0.508
2017-04-13 00:12:00,1662E-3,5C000400,-0724,0837,12147,030.4,045.5,0.216,748.7,01.17,0.508
2017-04-13 00:13:00,1547E-3,5C000400,-0724,0837,12006,030.4,045.5,0.216,748.7,01.17,0.508
2017-04-13 00:14:00,1669E-3,5C000400,-0724,0837,12275,030.4,045.5,0.216,748.6,01.17,0.508
2017-04-13 00:15:00,1682E-3,5C000400,-0724,0837,11920,030.4,045.5,0.216,748.6,01.17,0.508
2017-04-13 00:16:00,1613E-3,5C000400,-0724,0837,11895,030.5,045.5,0.216,748.6,01.17,0.508
2017-04-13 00:17:00,1642E-3,5C000400,-0724,0837,12053,030.5,045.5,0.216,748.6,01.17,0.508
2017-04-13 00:18:00,1728E-3,5C000400,-0724,0836,12238,030.5,045.5,0.216,748.6,01.17,0.508
2017-04-13 00:19:00,1624E-3,5C000400,-0724,0837,12178,030.5,045.5,0.216,748.6,01.17,0.508
2017-04-13 00:20:00,1553E-3,5C000400,-0724,0837,12181,030.5,045.5,0.216,748.7,01.17,0.508
2017-04-13 00:21:00,1738E-3,5C000400,-0724,0837,12087,030.5,045.5,0.216,748.7,01.17,0.508
2017-04-13 00:22:00,1724E-3,5C000400,-0724,0837,12132,030.5,045.5,0.216,748.7,01.17,0.508
2017-04-13 00:23:00,1576E-3,5C000400,-0724,0837,12012,030.5,045.5,0.216,748.7,01.17,0.508
2017-04-13 00:24:00,1747E-3,5C000400,-0724,0837,12055,030.5,045.5,0.216,748.7,01.17,0.508
2017-04-13 00:25:00,1708E-3,5C000400,-0724,0837,12153,030.5,045.5,0.216,748.7,01.17,0.508
2017-04-13 00:26:00,1584E-3,5C000400,-0724,0837,12088,030.5,045.5,0.216,748.7,01.17,0.508
2017-04-13 00:27:00,1773E-3,5C000400,-0724,0836,12107,030.5,045.5,0.216,748.7,01.17,0.508
2017-04-13 00:28:00,1666E-3,5C000400,-0724,0837,12028,030.5,045.5,0.216,748.6,01.17,0.508
2017-04-13 00:29:00,1611E-3,5C000400,-0724,0836,11997,030.5,045.5,0.216,748.6,01.17,0.508
2017-04-13 00:30:00,1582E-3,5C000400,-0724,0837,11871,030.6,045.5,0.215,748.6,01.17,0.508
2017-04-13 00:31:00,1670E-3,5C000400,-0724,0837,12013,030.5,045.5,0.216,748.6,01.17,0.508
2017-04-13 00:32:00,1728E-3,5C000400,-0724,0836,11999,030.5,045.5,0.216,748.6,01.17,0.508
2017-04-13 00:33:00,1457E-3,5C000400,-0724,0837,11978,030.6,045.5,0.216,748.6,01.17,0.508
2017-04-13 00:34:00,1709E-3,5C000400,-0724,0838,11973,030.6,045.5,0.216,748.6,01.17,0.508
2017-04-13 00:35:00,1653E-3,5C000400,-0724,0837,12044,030.6,045.5,0.216,748.6,01.17,0.508
2017-04-13 00:36:00,1601E-3,5C000400,-0724,0837,12068,030.6,045.5,0.216,748.6,01.17,0.508
2017-04-13 00:37:00,1773E-3,5C000400,-0724,0838,12131,030.6,045.5,0.216,748.7,01.17,0.508
2017-04-13 00:38:00,1503E-3,5C000400,-0724,0837,12110,030.6,045.5,0.216,748.6,01.17,0.508
2017-04-13 00:39:00,1706E-3,5C000400,-0724,0837,12072,030.6,045.5,0.216,748.6,01.17,0.508
2017-04-13 00:40:00,1642E-3,5C000400,-0724,0837,12011,030.6,045.5,0.216,748.6,01.17,0.508
2017-04-13 00:41:00,1607E-3,5C000400,-0724,0837,12089,030.6,045.5,0.215,748.6,01.17,0.508
2017-04-13 00:42:00,1563E-3,5C000400,-0724,0837,12092,030.6,045.5,0.216,748.7,01.17,0.508
2017-04-13 00:43:00,1672E-3,5C000400,-0724,0837,12237,030.6,045.5,0.216,748.6,01.17,0.508
2017-04-13 00:44:00,1624E-3,5C000400,-0724,0837,12091,030.6,045.5,0.215,748.6,01.17,0.508
2017-04-13 00:45:00,1706E-3,5C000400,-0724,0837,12080,030.6,045.5,0.216,748.6,01.17,0.508
2017-04-13 00:46:00,1683E-3,5C000400,-0724,0836,12044,030.6,045.5,0.216,748.6,01.17,0.508
2017-04-13 00:47:00,1683E-3,5C000400,-0724,0837,12038,030.6,045.5,0.216,748.6,01.17,0.508
2017-04-13 00:48:00,1696E-3,5C000400,-0724,0837,12100,030.7,045.5,0.216,748.6,01.17,0.508
2017-04-13 00:49:00,1667E-3,5C000400,-0724,0837,12151,030.7,045.5,0.216,748.6,01.17,0.508
2017-04-13 00:50:00,1686E-3,5C000400,-0724,0837,12035,030.7,045.5,0.216,748.5,01.17,0.508
2017-04-13 00:51:00,1638E-3,5C000400,-0724,0837,12067,030.7,045.5,0.215,748.6,01.17,0.508
2017-04-13 00:52:00,1653E-3,5C000400,-0724,0838,12059,030.7,045.5,0.216,748.6,01.17,0.508
2017-04-13 00:53:00,1716E-3,5C000400,-0724,0837,12058,030.7,045.5,0.215,748.6,01.17,0.508
2017-04-13 00:54:00,1586E-3,5C000400,-0724,0837,12091,030.7,045.5,0.215,748.6,01.17,0.508
2017-04-13 00:55:00,1572E-3,5C000400,-0724,0837,12078,030.7,045.5,0.216,748.6,01.17,0.508
2017-04-13 00:56:00,1671E-3,5C000400,-0724,0836,12175,030.7,045.5,0.215,748.6,01.17,0.508
2017-04-13 00:57:00,1578E-3,5C000400,-0724,0837,12010,030.7,045.5,0.216,748.6,01.17,0.508
2017-04-13 00:58:00,1574E-3,5C000400,-0724,0837,12135,030.7,045.5,0.215,748.6,01.17,0.508
2017-04-13 00:59:00,1629E-3,5C000400,-0724,0837,11998,030.7,045.5,0.215,748.6,01.17,0.508
2017-04-13 01:00:00,1674E-3,5C000400,-0724,0837,12123,030.7,045.5,0.216,748.6,01.17,0.508
2017-04-13 01:01:00,1656E-3,5C000400,-0724,0838,12150,030.8,045.5,0.215,748.6,01.17,0.508
2017-04-13 01:02:00,1680E-3,5C000400,-0724,0837,12004,030.8,045.5,0.215,748.6,01.17,0.508
2017-04-13 01:03:00,1539E-3,5C000400,-0724,0837,12116,030.8,045.5,0.215,748.6,01.17,0.508
2017-04-13 01:04:00,1587E-3,5C000400,-0724,0837,12082,030.8,045.5,0.215,748.7,01.17,0.508
2017-04-13 01:05:00,1654E-3,5C000400,-0724,0837,12025,030.8,045.5,0.215,748.7,01.17,0.508
2017-04-13 01:06:00,1641E-3,5C000400,-0724,0837,11988,030.8,045.5,0.215,748.7,01.17,0.508
2017-04-13 01:07:00,1807E-3,5C000400,-0724,0837,11951,030.8,045.5,0.215,748.7,01.17,0.508
2017-04-13 01:08:00,1683E-3,5C000400,-0724,0837,12064,030.8,045.5,0.215,748.7,01.17,0.508
2017-04-13 01:09:00,1644E-3,5C000400,-0724,0837,12017,030.8,045.5,0.215,748.6,01.17,0.508
2017-04-13 01:10:00,1776E-3,5C000400,-0724,0837,11991,030.8,045.5,0.215,748.6,01.17,0.508
2017-04-13 01:11:00,1633E-3,5C000400,-0724,0837,12102,030.8,045.5,0.215,748.6,01.17,0.508
2017-04-13 01:12:00,1616E-3,5C000400,-0724,0836,12151,030.9,045.5,0.215,748.6,01.17,0.508
2017-04-13 01:13:00,1680E-3,5C000400,-0724,0836,11966,030.9,045.5,0.215,748.6,01.17,0.508
2017-04-13 01:14:00,1626E-3,5C000400,-0724,0837,11949,030.9,045.5,0.215,748.6,01.17,0.508
2017-04-13 01:15:00,1655E-3,5C000400,-0724,0837,12203,030.9,045.5,0.215,748.7,01.17,0.508
2017-04-13 01:16:00,1640E-3,5C000400,-0724,0837,12051,030.9,045.5,0.215,748.7,01.17,0.508
2017-04-13 01:17:00,1691E-3,5C000400,-0724,0837,12087,030.9,045.5,0.215,748.7,01.17,0.508
2017-04-13 01:18:00,1625E-3,5C000400,-0724,0837,12051,030.9,045.5,0.215,748.7,01.17,0.508
2017-04-13 01:19:00,1563E-3,5C000400,-0724,0837,12099,030.9,045.6,0.215,748.7,01.17,0.508
2017-04-13 01:20:00,1577E-3,5C000400,-0724,0837,12192,030.9,045.5,0.215,748.7,01.17,0.508
2017-04-13 01:21:00,1689E-3,5C000400,-0724,0837,11927,030.9,045.5,0.215,748.7,01.17,0.508
2017-04-13 01:22:00,1672E-3,5C000400,-0724,0837,12165,030.9,045.5,0.215,748.7,01.17,0.508
2017-04-13 01:23:00,1754E-3,5C000400,-0724,0837,12033,030.9,045.5,0.215,748.7,01.17,0.508
2017-04-13 01:24:00,1606E-3,5C000400,-0724,0838,12022,030.9,045.5,0.215,748.7,01.17,0.508
2017-04-13 01:25:00,1627E-3,5C000400,-0724,0837,12026,030.9,045.5,0.215,748.7,01.17,0.508
2017-04-13 01:26:00,1600E-3,5C000400,-0724,0837,12051,030.9,045.5,0.215,748.7,01.17,0.508
2017-04-13 01:27:00,1630E-3,5C000400,-0724,0837,12026,030.9,045.5,0.215,748.7,01.17,0.508
2017-04-13 01:28:00,1579E-3,5C000400,-0724,0837,11865,030.9,045.5,0.215,748.7,01.17,0.508
2017-04-13 01:29:00,1623E-3,5C000400,-0724,0837,11974,030.9,045.6,0.215,748.7,01.17,0.508
2017-04-13 01:30:00,1589E-3,5C000400,-0724,0837,12109,031.0,045.5,0.215,748.7,01.17,0.508
2017-04-13 01:31:00,1519E-3,5C000400,-0724,0837,12107,031.0,045.5,0.215,748.7,01.17,0.508
2017-04-13 01:32:00,1669E-3,5C000400,-0724,0837,12148,031.0,045.5,0.215,748.7,01.17,0.508
2017-04-13 01:33:00,1563E-3,5C000400,-0724,0838,12043,031.0,045.5,0.215,748.7,01.17,0.508
2017-04-13 01:34:00,1647E-3,5C000400,-0724,0838,12113,031.0,045.5,0.215,748.7,01.17,0.508
2017-04-13 01:35:00,1626E-3,5C000400,-0724,0837,12242,031.0,045.5,0.215,748.7,01.17,0.508
2017-04-13 01:36:00,1819E-3,5C000400,-0724,0837,12019,031.0,045.5,0.215,748.7,01.17,0.508
2017-04-13 01:37:00,1658E-3,5C000400,-0724,0837,12084,031.0,045.5,0.215,748.7,01.17,0.508
2017-04-13 01:38:00,1761E-3,5C000400,-0724,0837,11994,031.0,045.5,0.215,748.7,01.17,0.508
2017-04-13 01:39:00,1632E-3,5C000400,-0724,0837,11940,031.0,045.5,0.215,748.7,01.17,0.508
2017-04-13 01:40:00,1639E-3,5C000400,-0724,0836,12162,031.0,045.5,0.215,748.7,01.17,0.508
2017-04-13 01:41:00,1678E-3,5C000400,-0724,0838,12013,031.0,045.5,0.215,748.7,01.17,0.508
2017-04-13 01:42:00,1731E-3,5C000400,-0724,0837,12101,031.0,045.5,0.215,748.7,01.17,0.508
2017-04-13 01:43:00,1518E-3,5C000400,-0724,0837,12006,031.0,045.5,0.215,748.7,01.17,0.508
2017-04-13 01:44:00,1732E-3,5C000400,-0724,0837,11941,031.1,045.5,0.215,748.7,01.17,0.508
2017-04-13 01:45:00,1617E-3,5C000400,-0724,0838,12151,031.1,045.5,0.215,748.7,01.17,0.508
2017-04-13 01:46:00,1654E-3,5C000400,-0724,0837,12162,031.1,045.6,0.215,748.7,01.17,0.508
2017-04-13 01:47:00,1650E-3,5C000400,-0724,0837,12083,031.1,045.5,0.215,748.7,01.17,0.508
2017-04-13 01:48:00,1645E-3,5C000400,-0724,0837,12067,031.1,045.5,0.215,748.8,01.17,0.508
2017-04-13 01:49:00,1610E-3,5C000400,-0724,0836,12115,031.1,045.5,0.215,748.8,01.17,0.508
2017-04-13 01:50:00,1700E-3,5C000400,-0724,0838,12080,031.1,045.6,0.215,748.8,01.17,0.508
2017-04-13 01:51:00,1658E-3,5C000400,-0724,0837,11985,031.1,045.6,0.214,748.9,01.17,0.508
2017-04-13 01:52:00,1635E-3,5C000400,-0724,0837,11968,031.1,045.5,0.215,748.9,01.17,0.508
2017-04-13 01:53:00,1781E-3,5C000400,-0724,0838,12149,031.1,045.6,0.215,748.9,01.17,0.508
2017-04-13 01:54:00,1626E-3,5C000400,-0724,0837,12150,031.1,045.6,0.215,748.9,01.17,0.508
2017-04-13 01:55:00,1684E-3,5C000400,-0724,0837,12041,031.1,045.5,0.214,748.9,01.17,0.508
2017-04-13 01:56:00,1493E-3,5C000400,-0724,0837,12139,031.1,045.5,0.215,748.9,01.17,0.508
2017-04-13 01:57:00,1658E-3,5C000400,-0724,0836,11897,031.1,045.6,0.215,748.9,01.17,0.508
2017-04-13 01:58:00,1705E-3,5C000400,-0724,0837,12039,031.2,045.6,0.215,748.9,01.17,0.508
2017-04-13 01:59:00,1552E-3,5C000400,-0724,0837,12061,031.2,045.6,0.214,748.9,01.17,0.508
2017-04-13 02:00:00,1669E-3,5C000400,-0724,0837,12086,031.2,045.5,0.214,748.9,01.17,0.508
2017-04-13 02:01:00,1622E-3,5C000400,-0724,0838,11966,031.2,045.6,0.215,748.9,01.17,0.508
2017-04-13 02:02:00,1668E-3,5C000400,-0724,0836,12048,031.2,045.6,0.215,748.9,01.17,0.508
2017-04-13 02:03:00,1788E-3,5C000400,-0724,0837,12170,031.2,045.6,0.214,748.9,01.17,0.508
2017-04-13 02:04:00,1648E-3,5C000400,-0724,0836,12023,031.2,045.6,0.214,748.9,01.17,0.508
2017-04-13 02:05:00,1584E-3,5C000400,-0724,0837,12090,031.2,045.6,0.215,748.9,01.17,0.508
2017-04-13 02:06:00,1765E-3,5C000400,-0724,0837,12088,031.2,045.5,0.215,748.9,01.17,0.508
2017-04-13 02:07:00,1651E-3,5C000400,-0724,0838,12011,031.3,045.5,0.214,748.9,01.17,0.508
2017-04-13 02:08:00,1669E-3,5C000400,-0724,0837,12120,031.2,045.5,0.214,748.9,01.17,0.508
2017-04-13 02:09:00,1783E-3,5C000400,-0724,0837,12120,031.2,045.5,0.214,748.9,01.17,0.508
2017-04-13 02:10:00,1590E-3,5C000400,-0724,0837,11979,031.3,045.5,0.215,748.9,01.17,0.508
2017-04-13 02:11:00,1672E-3,5C000400,-0724,0838,12152,031.3,045.6,0.215,748.9,01.17,0.508
2017-04-13 02:12:00,1519E-3,5C000400,-0724,0837,12145,031.3,045.6,0.214,748.9,01.17,0.508
2017-04-13 02:13:00,1685E-3,5C000400,-0724,0837,12061,031.3,045.5,0.214,748.9,01.17,0.508
2017-04-13 02:14:00,1652E-3,5C000400,-0724,0838,11980,031.3,045.6,0.214,748.9,01.17,0.508
2017-04-13 02:15:00,1551E-3,5C000400,-0724,0836,11973,031.3,045.6,0.214,748.9,01.17,0.508
2017-04-13 02:16:00,1655E-3,5C000400,-0724,0838,12192,031.3,045.5,0.215,748.9,01.17,0.508
2017-04-13 02:17:00,1576E-3,5C000400,-0724,0836,11985,031.3,045.5,0.214,748.8,01.17,0.508
2017-04-13 02:18:00,1651E-3,5C000400,-0724,0837,12014,031.3,045.6,0.214,748.8,01.17,0.508
2017-04-13 02:19:00,1618E-3,5C000400,-0724,0838,12025,031.3,045.5,0.214,748.8,01.17,0.508
2017-04-13 02:20:00,1764E-3,5C000400,-0724,0838,12016,031.3,045.5,0.214,748.9,01.17,0.508
2017-04-13 02:21:00,1677E-3,5C000400,-0724,0838,12119,031.4,045.6,0.214,748.9,01.17,0.508
2017-04-13 02:22:00,1688E-3,5C000400,-0724,0838,12029,031.4,045.6,0.214,748.9,01.17,0.508
2017-04-13 02:23:00,1669E-3,5C000400,-0724,0837,12003,031.4,045.5,0.214,748.9,01.17,0.508
2017-04-13 02:24:00,1544E-3,5C000400,-0724,0837,12126,031.4,045.5,0.214,748.9,01.17,0.508
2017-04-13 02:25:00,1685E-3,5C000400,-0724,0837,11990,031.4,045.6,0.214,748.9,01.17,0.508
2017-04-13 02:26:00,1563E-3,5C000400,-0724,0837,12000,031.4,045.6,0.214,748.9,01.17,0.508
2017-04-13 02:27:00,1672E-3,5C000400,-0724,0837,12105,031.4,045.6,0.214,749.0,01.17,0.508
2017-04-13 02:28:00,1584E-3,5C000400,-0724,0838,12165,031.4,045.6,0.214,748.9,01.17,0.508
2017-04-13 02:29:00,1537E-3,5C000400,-0724,0837,12208,031.4,045.6,0.214,749.0,01.17,0.508
2017-04-13 02:30:00,1654E-3,5C000400,-0724,0837,11975,031.4,045.6,0.214,749.0,01.17,0.508
2017-04-13 02:31:00,1529E-3,5C000400,-0724,0838,12050,031.4,045.6,0.214,749.0,01.17,0.508
2017-04-13 02:32:00,1695E-3,5C000400,-0724,0837,12056,031.4,045.6,0.214,749.0,01.17,0.508
2017-04-13 02:33:00,1614E-3,5C000400,-0724,0838,12113,031.4,045.5,0.214,749.0,01.17,0.508
2017-04-13 02:34:00,1652E-3,5C000400,-0724,0838,12058,031.4,045.6,0.214,749.0,01.17,0.508
2017-04-13 02:35:00,1563E-3,5C000400,-0724,0838,12058,031.4,045.6,0.214,749.0,01.17,0.508
2017-04-13 02:36:00,1613E-3,5C000400,-0724,0837,12138,031.4,045.5,0.214,749.0,01.17,0.508
2017-04-13 02:37:00,1691E-3,5C000400,-0724,0837,11924,031.5,045.6,0.214,749.0,01.17,0.508
2017-04-13 02:38:00,1652E-3,5C000400,-0724,0837,12033,031.5,045.6,0.214,749.0,01.17,0.508
2017-04-13 02:39:00,1602E-3,5C000400,-0724,0838,12070,031.5,045.6,0.214,749.0,01.17,0.508
2017-04-13 02:40:00,1572E-3,5C000400,-0724,0837,12027,031.5,045.6,0.214,749.0,01.17,0.508
2017-04-13 02:41:00,1717E-3,5C000400,-0724,0838,12023,031.5,045.6,0.214,749.0,01.17,0.508
2017-04-13 02:42:00,1590E-3,5C000400,-0724,0837,12136,031.5,045.6,0.213,749.0,01.17,0.508
2017-04-13 02:43:00,1667E-3,5C000400,-0724,0837,12015,031.5,045.6,0.214,749.0,01.17,0.508
2017-04-13 02:44:00,1583E-3,5C000400,-0724,0838,12120,031.5,045.5,0.214,749.0,01.17,0.508
2017-04-13 02:45:00,1676E-3,5C000400,-0724,0838,12140,031.5,045.5,0.214,749.1,01.17,0.508
2017-04-13 02:46:00,1627E-3,5C000400,-0724,0838,11991,031.6,045.6,0.214,749.1,01.17,0.508
2017-04-13 02:47:00,1494E-3,5C000400,-0724,0838,12105,031.6,045.6,0.214,749.0,01.17,0.508
2017-04-13 02:48:00,1692E-3,5C000400,-0724,0838,12048,031.6,045.6,0.214,749.0,01.17,0.508
2017-04-13 02:49:00,1688E-3,5C000400,-0724,0838,11938,031.6,045.6,0.214,749.0,01.17,0.508
2017-04-13 02:50:00,1639E-3,5C000400,-0724,0838,12115,031.6,045.6,0.214,749.0,01.17,0.508
2017-04-13 02:51:00,1811E-3,5C000400,-0724,0838,12160,031.6,045.6,0.213,749.1,01.17,0.508
2017-04-13 02:52:00,1659E-3,5C000400,-0724,0838,12122,031.6,045.6,0.213,749.0,01.17,0.508
2017-04-13 02:53:00,1674E-3,5C000400,-0724,0837,12075,031.6,045.6,0.214,749.0,01.17,0.508
2017-04-13 02:54:00,1702E-3,5C000400,-0724,0838,11890,031.6,045.6,0.214,749.0,01.17,0.508
2017-04-13 02:55:00,1712E-3,5C000400,-0724,0838,12111,031.6,045.6,0.214,749.0,01.17,0.508
2017-04-13 02:56:00,1705E-3,5C000400,-0724,0837,12152,031.6,045.6,0.214,749.0,01.17,0.508
2017-04-13 02:57:00,1650E-3,5C000400,-0724,0837,12057,031.6,045.6,0.214,749.0,01.17,0.508
2017-04-13 02:58:00,1628E-3,5C000400,-0724,0837,12110,031.7,045.6,0.213,749.1,01.17,0.508
2017-04-13 02:59:00,1659E-3,5C000400,-0724,0838,12104,031.7,045.6,0.213,749.0,01.17,0.508
2017-04-13 03:00:00,1599E-3,5C000400,-0724,0837,11921,031.7,045.5,0.213,749.0,01.17,0.508
2017-04-13 03:01:00,1716E-3,5C000400,-0724,0837,11881,031.7,045.6,0.214,749.0,01.17,0.508
2017-04-13 03:02:00,1641E-3,5C000400,-0724,0838,12084,031.7,045.6,0.214,749.1,01.17,0.508
2017-04-13 03:03:00,1582E-3,5C000400,-0724,0838,12178,031.7,045.6,0.214,749.1,01.17,0.508
2017-04-13 03:04:00,1562E-3,5C000400,-0724,0838,12114,031.7,045.6,0.214,749.1,01.17,0.508
2017-04-13 03:05:00,1667E-3,5C000400,-0724,0838,12132,031.7,045.6,0.213,749.1,01.17,0.508
2017-04-13 03:06:00,1516E-3,5C000400,-0724,0838,12116,031.7,045.6,0.213,749.1,01.17,0.508
2017-04-13 03:07:00,1614E-3,5C000400,-0724,0837,11954,031.7,045.6,0.213,749.1,01.17,0.508
2017-04-13 03:08:00,1621E-3,5C000400,-0724,0838,11963,031.8,045.6,0.213,749.1,01.17,0.508
2017-04-13 03:09:00,1629E-3,5C000400,-0724,0838,12140,031.8,045.6,0.213,749.1,01.17,0.508
2017-04-13 03:10:00,1567E-3,5C000400,-0724,0838,11994,031.8,045.6,0.213,749.1,01.17,0.508
2017-04-13 03:11:00,1714E-3,5C000400,-0724,0838,11957,031.8,045.6,0.213,749.1,01.17,0.508
2017-04-13 03:12:00,1792E-3,5C000400,-0724,0837,12068,031.8,045.6,0.213,749.1,01.17,0.508
2017-04-13 03:13:00,1600E-3,5C000400,-0724,0837,12095,031.8,045.6,0.213,749.1,01.17,0.508
2017-04-13 03:14:00,1527E-3,5C000400,-0724,0837,12035,031.8,045.6,0.213,749.1,01.17,0.508
2017-04-13 03:15:00,1540E-3,5C000400,-0724,0838,12129,031.8,045.6,0.213,749.1,01.17,0.508
2017-04-13 03:16:00,1565E-3,5C000400,-0724,0838,12158,031.8,045.6,0.213,749.1,01.17,0.508
2017-04-13 03:17:00,1533E-3,5C000400,-0724,0837,12037,031.8,045.6,0.213,749.1,01.17,0.508
2017-04-13 03:18:00,1691E-3,5C000400,-0724,0839,12088,031.8,045.6,0.213,749.1,01.17,0.508
2017-04-13 03:19:00,1689E-3,5C000400,-0724,0837,12185,031.8,045.6,0.213,749.1,01.17,0.508
2017-04-13 03:20:00,1585E-3,5C000400,-0724,0838,12237,031.9,045.6,0.213,749.1,01.17,0.508
2017-04-13 03:21:00,1519E-3,5C000400,-0724,0839,12089,031.9,045.6,0.213,749.1,01.17,0.508
2017-04-13 03:22:00,1694E-3,5C000400,-0724,0838,11989,031.9,045.6,0.213,749.1,01.17,0.508
2017-04-13 03:23:00,1596E-3,5C000400,-0724,0838,12057,031.9,045.6,0.213,749.1,01.17,0.508
2017-04-13 03:24:00,1528E-3,5C000400,-0724,0838,12003,031.9,045.6,0.213,749.2,01.17,0.508
2017-04-13 03:25:00,1565E-3,5C000400,-0724,0837,11982,031.9,045.6,0.213,749.2,01.17,0.508
2017-04-13 03:26:00,1617E-3,5C000400,-0724,0837,12084,031.9,045.6,0.213,749.2,01.17,0.508
2017-04-13 03:27:00,1583E-3,5C000400,-0724,0838,12055,031.9,045.6,0.213,749.2,01.17,0.508
2017-04-13 03:28:00,1612E-3,5C000400,-0724,0837,12023,031.9,045.6,0.213,749.2,01.17,0.508
2017-04-13 03:29:00,1727E-3,5C000400,-0724,0838,12015,031.9,045.6,0.213,749.2,01.17,0.508
2017-04-13 03:30:00,1635E-3,5C000400,-0724,0838,12151,032.0,045.6,0.213,749.2,01.17,0.508
2017-04-13 03:31:00,1583E-3,5C000400,-0724,0837,12120,032.0,045.6,0.213,749.2,01.17,0.508
2017-04-13 03:32:00,1581E-3,5C000400,-0724,0838,12168,032.0,045.6,0.213,749.3,01.17,0.508
2017-04-13 03:33:00,1581E-3,5C000400,-0724,0838,12127,032.0,045.6,0.212,749.3,01.17,0.508
2017-04-13 03:34:00,1670E-3,5C000400,-0724,0837,12026,032.0,045.6,0.212,749.2,01.17,0.508
2017-04-13 03:35:00,1662E-3,5C000400,-0724,0838,12091,032.0,045.6,0.213,749.3,01.17,0.508
2017-04-13 03:36:00,1692E-3,5C000400,-0724,0837,11943,032.0,045.6,0.213,749.2,01.17,0.508
2017-04-13 03:37:00,1636E-3,5C000400,-0724,0837,12143,032.0,045.6,0.213,749.2,01.17,0.508
2017-04-13 03:38:00,1611E-3,5C000400,-0724,0838,12212,032.1,045.6,0.213,749.2,01.17,0.508
2017-04-13 03:39:00,1734E-3,5C000400,-0724,0838,12032,032.1,045.6,0.213,749.2,01.17,0.508
2017-04-13 03:40:00,1717E-3,5C000400,-0724,0838,12144,032.1,045.6,0.213,749.2,01.17,0.508
2017-04-13 03:41:00,1604E-3,5C000400,-0724,0838,11928,032.1,045.6,0.213,749.2,01.17,0.508
2017-04-13 03:42:00,1697E-3,5C000400,-0724,0838,12134,032.1,045.6,0.213,749.2,01.17,0.508
2017-04-13 03:43:00,1749E-3,5C000400,-0724,0837,12063,032.1,045.6,0.213,749.2,01.17,0.508
2017-04-13 03:44:00,1584E-3,5C000400,-0724,0838,12065,032.1,045.6,0.213,749.3,01.17,0.508
2017-04-13 03:45:00,1762E-3,5C000400,-0724,0837,11981,032.1,045.6,0.213,749.3,01.17,0.508
2017-04-13 03:46:00,1545E-3,5C000400,-0724,0838,12101,032.1,045.6,0.213,749.3,01.17,0.508
2017-04-13 03:47:00,1648E-3,5C000400,-0724,0838,11990,032.1,045.6,0.213,749.2,01.17,0.508
2017-04-13 03:48:00,1613E-3,5C000400,-0724,0838,12000,032.1,045.6,0.213,749.2,01.17,0.508
2017-04-13 03:49:00,1565E-3,5C000400,-0724,0837,11901,032.1,045.6,0.213,749.2,01.17,0.508
2017-04-13 03:50:00,1570E-3,5C000400,-0724,0838,12024,032.1,045.6,0.213,749.2,01.17,0.508
2017-04-13 03:51:00,1757E-3,5C000400,-0724,0837,12120,032.2,045.6,0.213,749.2,01.17,0.508
2017-04-13 03:52:00,1677E-3,5C000400,-0724,0838,12097,032.2,045.6,0.213,749.2,01.17,0.508
2017-04-13 03:53:00,1473E-3,5C000400,-0724,0838,12118,032.2,045.6,0.212,749.2,01.17,0.508
2017-04-13 03:54:00,1699E-3,5C000400,-0724,0838,12074,032.2,045.6,0.212,749.2,01.17,0.508
2017-04-13 03:55:00,1699E-3,5C000400,-0724,0838,12084,032.2,045.6,0.212,749.2,01.17,0.508
2017-04-13 03:56:00,1639E-3,5C000400,-0724,0839,12025,032.2,045.6,0.212,749.2,01.17,0.508
2017-04-13 03:57:00,1618E-3,5C000400,-0724,0838,12118,032.2,045.6,0.212,749.2,01.17,0.508
2017-04-13 03:58:00,1563E-3,5C000400,-0724,0839,12002,032.2,045.6,0.212,749.2,01.17,0.508
2017-04-13 03:59:00,1702E-3,5C000400,-0724,0838,12054,032.2,045.6,0.212,749.2,01.17,0.508
2017-04-13 04:00:00,1605E-3,5C000400,-0724,0838,12134,032.2,045.6,0.212,749.2,01.17,0.508
2017-04-13 04:01:00,1658E-3,5C000400,-0724,0838,12009,032.3,045.6,0.212,749.2,01.17,0.508
2017-04-13 04:02:00,1735E-3,5C000400,-0724,0837,12180,032.3,045.6,0.212,749.2,01.17,0.508
2017-04-13 04:03:00,1599E-3,5C000400,-0724,0838,12004,032.3,045.6,0.212,749.2,01.17,0.508
2017-04-13 04:04:00,1584E-3,5C000400,-0724,0838,12095,032.3,045.6,0.212,749.2,01.17,0.508
2017-04-13 04:05:00,1686E-3,5C000400,-0724,0838,12112,032.3,045.6,0.212,749.2,01.17,0.508
2017-04-13 04:06:00,1671E-3,5C000400,-0724,0839,12116,032.3,045.6,0.212,749.3,01.17,0.508
2017-04-13 04:07:00,1691E-3,5C000400,-0724,0839,12048,032.3,045.6,0.212,749.2,01.17,0.508
2017-04-13 04:08:00,1697E-3,5C000400,-0724,0838,12034,032.3,045.6,0.212,749.2,01.17,0.508
2017-04-13 04:09:00,1683E-3,5C000400,-0724,0838,12013,032.3,045.6,0.212,749.3,01.17,0.508
2017-04-13 04:10:00,1711E-3,5C000400,-0724,0838,12080,032.4,045.6,0.212,749.3,01.17,0.508
2017-04-13 04:11:00,1775E-3,5C000400,-0724,0838,12001,032.3,045.6,0.212,749.3,01.17,0.508
2017-04-13 04:12:00,1718E-3,5C000400,-0724,0838,12157,032.4,045.6,0.212,749.3,01.17,0.508
2017-04-13 04:13:00,1705E-3,5C000400,-0724,0838,12069,032.4,045.6,0.212,749.3,01.17,0.508
2017-04-13 04:14:00,1552E-3,5C000400,-0724,0838,12053,032.4,045.6,0.212,749.3,01.17,0.508
2017-04-13 04:15:00,1648E-3,5C000400,-0724,0838,12091,032.4,045.6,0.212,749.3,01.17,0.508
2017-04-13 04:16:00,1620E-3,5C000400,-0724,0838,12028,032.4,045.6,0.212,749.3,01.17,0.508
2017-04-13 04:17:00,1610E-3,5C000400,-0724,0838,11948,032.4,045.6,0.212,749.3,01.17,0.508
2017-04-13 04:18:00,1660E-3,5C000400,-0724,0839,12085,032.4,045.6,0.212,749.3,01.17,0.508
2017-04-13 04:19:00,1739E-3,5C000400,-0724,0838,12008,032.4,045.6,0.212,749.3,01.17,0.508
2017-04-13 04:20:00,1683E-3,5C000400,-0724,0838,11945,032.4,045.6,0.212,749.3,01.17,0.508